Flag for Vanuatu Weather past 2 weeks in Port Vila, Vanuatu

Now
86 °F

Scattered clouds.


Feels Like: 99 °F
Forecast: 79 / 83 °F
Wind: 12 mph from Southeast

Location: Bauerfield Efate

Current Time: Dec 20, 2014 at 12:18:11 PM

Latest Report: Dec 20, 2014 at 12:00 PM


Visibility: N/A

Pressure: 29.77 "Hg

Humidity: 79%

Dew point: 79 °F

Location of Port VilaLocation

Historic Weather in Port Vila — Graph

°F

Port Vila temperature yesterday

Maximum temperature yesterday: 88 °F (at 10:00 AM)
Minimum temperature yesterday: 73 °F (at 11:00 PM)
Average temperature yesterday: 82 °F

Past Weeks' High & Low Weather Summary

 TemperatureHumidityPressure
High90 °F (Dec 15, 12:00 PM)100% (Dec 6, 1:00 AM)29.98 "Hg (Dec 6, 1:00 AM)
Low66 °F (Dec 11, 2:00 AM)51% (Dec 11, 3:00 PM)29.68 "Hg (Dec 16, 4:00 PM)
Average79 °F83%29.84 "Hg
* Reported Dec 5 10:00 AM — Dec 20 10:00 AM, Port Vila, Weather by CustomWeather, © 2014

Note: Actual official high and low records may vary slightly from our data, if they occured in-between our weather recording intervals... More about our weather records

Advertising

Port Vila weather history for previous 24 hours

 ConditionsComfort  
Time TempWeatherWind HumidityBarometerVisibility
10:00 AM
Dec 20
84 °FBroken clouds.6 mph84%29.80 "HgN/A
9:00 AM84 °FBroken clouds.No wind84%29.80 "HgN/A
8:00 AM81 °FBroken clouds.6 mph89%29.83 "HgN/A
7:00 AM77 °FBroken clouds.No wind94%29.83 "HgN/A
6:00 AM73 °FBroken clouds.No wind94%29.80 "HgN/A
5:00 AM72 °FPassing clouds.No wind94%29.77 "HgN/A
4:00 AM72 °FPassing clouds.No wind100%29.77 "HgN/A
3:00 AM72 °FPassing clouds.No wind100%29.80 "HgN/A
2:00 AM72 °FPassing clouds.No wind100%29.80 "HgN/A
1:00 AM72 °FPassing clouds.No wind100%29.83 "HgN/A
12:00 AM73 °FPassing clouds.No wind100%29.83 "HgN/A
11:00 PM
Dec 19
73 °FPassing clouds.No wind100%29.86 "HgN/A
10:00 PM75 °FPassing clouds.No wind94%29.86 "HgN/A
9:00 PM75 °FPassing clouds.No wind94%29.86 "HgN/A
8:00 PM77 °FPassing clouds.2 mph94%29.83 "HgN/A
7:00 PM81 °FPassing clouds.2 mph84%29.80 "HgN/A
5:00 PM86 °FScattered clouds.9 mph70%29.77 "HgN/A
4:00 PM86 °FScattered clouds.7 mph70%29.77 "HgN/A
3:00 PM86 °FScattered clouds.12 mph70%29.77 "HgN/A
2:00 PM86 °FScattered clouds.10 mph75%29.77 "HgN/A
1:00 PM88 °FScattered clouds.9 mph66%29.80 "HgN/A
12:00 PM88 °FScattered clouds.9 mph66%29.83 "HgN/A
Weather by CustomWeather, © 2014

See weather overviewHow to use our weather pages